www.pogodaiklimat.ru

Погода и климат >> Архив погоды >> Индия >> Harnai


ПОГОДА в Harnai

  • Прогноз погоды в Harnai
  • Монитор погоды в Harnai
  • Климат города

АРХИВ ПОГОДЫ в Harnai

Время (UTC), дата Ветер
(напр.,м/с)
 
Видим.   Явления Облачность Т
(С)
Тd
(С)
f
(%)
Тe
(С)
Тes
(С)
Комфортность P
(гПа)
Po
(гПа)
Тmin
(С)
Tmax
(С)
R
(мм)
R24
(мм)
S
(см)
03 15.10 штиль 0 4000 м {туман} 9/5 600 м
[Sc diur, vesp Ac As]
+25.3 0.0 19 +24 +25 комфорт 1009.0 1009.0 +22.6
06 15.10 ЮЗ 2 4000 м {туман} 9/5 600 м
[Sc diur, vesp Ac As]
+29.0 0.0 15 +26 +30 жарко 1010.2 1010.0
09 15.10 штиль 0 4000 м {туман} 9/5 600 м
[Sc diur, vesp Ac As]
+30.2 0.0 14 +27 +31 жарко 1007.0 1007.0
12 15.10 ЮЗ 1 4000 м {туман} 9/5 600 м
[Sc diur, vesp Ac As]
+29.6 0.0 15 +27 +27 жарко 1006.6 1007.0 +31.2
03 16.10 штиль 0 50 км {туман} ?/? +27.4 0.0 17 +25 +25 комфорт 1010.5 1011.0 +25.9
06 16.10 ЮЗ 1 4000 м {туман} 5/5 600 м
[Sc diur, vesp]
+29.8 0.0 15 +27 +36 жарко 1010.9 1011.0
09 16.10 ЮЗ 1 4000 м {туман} 5/5 600 м
[Sc diur, vesp]
+30.2 0.0 14 +27 +35 жарко 1007.5 1008.0
12 16.10 ЮЗ 2 4000 м {туман} 8/5 600 м
[Sc diur, vesp Ac As]
+29.8 -20.1 3 +25 +25 комфорт 1007.1 1007.0 +30.9
03 17.10 штиль 0 4000 м {туман} ясно +27.8 -20.1 3 +23 +28 комфорт 1010.8 1011.0 +26.0
06 17.10 штиль 0 4000 м {туман} 5/5 600 м
[Sc diur, vesp]
+30.0 -20.1 3 +25 +36 комфорт 1010.8 1011.0
09 17.10 З 1 4000 м {туман} 8/5 600 м
[Sc diur, vesp Ac As]
+31.0 0.0 14 +28 +32 жарко 1008.0 1008.0
12 17.10 З 2 4000 м {туман} 9/5 600 м
[Sc diur, vesp Ac As]
+30.0 -20.1 3 +25 +26 комфорт 1007.1 1007.0 +32.5
03 18.10 штиль 0 4000 м {туман} 5/5 600 м
[Sc diur, vesp]
+27.2 0.0 17 +25 +27 комфорт 1010.4 1010.0 +26.0
06 18.10 штиль 0 4000 м {туман} 5/5 600 м
[Sc diur, vesp]
+29.6 0.0 15 +27 +37 жарко 1010.9 1011.0
09 18.10 штиль 0 4000 м {туман} 5/5 600 м
[Sc diur, vesp]
+30.6 0.0 14 +28 +36 жарко 1008.2 1008.0
12 18.10 З 2 4000 м {туман} 5/5 600 м
[Sc diur, vesp]
+30.0 0.0 14 +27 +28 жарко 1006.9 1007.0 +30.9
03 19.10 штиль 0 4000 м {туман} ясно +27.0 -20.1 3 +23 +27 комфорт 1010.0 1010.0 +24.8
06 19.10 штиль 0 4000 м {туман} 5/5 600 м
[Sc diur, vesp]
+30.0 -20.1 3 +25 +36 комфорт 1010.4 1010.0
09 19.10 штиль 0 4000 м {туман} 5/5 600 м
[Sc diur, vesp]
+31.0 -20.1 3 +26 +35 жарко 1006.8 1007.0
12 19.10 З 2 4000 м {туман} 4/4 600 м
[Sc diur, vesp]
+30.0 -20.1 3 +25 +26 комфорт 1006.6 1007.0 +31.4
03 20.10 штиль 0 4000 м {туман} ясно +26.8 -20.1 4 +23 +27 комфорт 1010.6 1011.0 +24.1
06 20.10 штиль 0 4000 м {туман} 4/4 600 м
[Sc diur, vesp]
+29.8 -20.1 3 +25 +37 комфорт 1010.9 1011.0
09 20.10 штиль 0 4000 м {туман} 5/5 600 м
[Sc diur, vesp]
+30.6 0.0 14 +28 +36 жарко 1008.4 1008.0
12 20.10 ЮЗ 2 4000 м {туман} 5/5 600 м
[Sc diur, vesp]
+29.8 -20.1 3 +25 +26 комфорт 1008.2 1008.0 +31.0
03 21.10 штиль 0 4000 м мгла {туман, метель} 5/1 600 м
[Sc Ac As]
+26.2 0.0 18 +24 +27 комфорт 1011.1 1011.0 +24.7
06 21.10 штиль 0 4000 м мгла {туман, метель} 6/1 600 м
[Sc diur, vesp Ac trans]
+29.8 0.0 15 +27 +39 жарко 1011.5 1012.0
09 21.10 Ю 2 4000 м мгла {туман, метель} 9/5 600 м
[Sc diur, vesp Ac As]
+29.6 0.0 15 +27 +30 жарко 1009.2 1009.0
12 21.10 штиль 0 4000 м мгла {туман} 8/4 600 м
[Sc diur, vesp Ac As]
+29.6 0.0 15 +27 +27 жарко 1008.1 1008.0 +30.3

 

Местоположение метеостанции Harnai (Maharashtra, Индия): широта 17.82 долгота 73.10 высота над уровнем моря 20 м.

В архиве по умолчанию представлена погода в Harnai за последнюю неделю. Архивные данные за месяц целиком и за предыдущие месяцы, начиная с января 2011 года, Вы можете получить, выбрав интересующий диапазон дат из раскрывающегося списка и нажав кнопку "Ввод!".

Внимание! Время в таблицах - всемирное. Для получения местного времени необходимо прибавить поправку, которая в Harnai равна 5.5 ч.

Смотрите также архив погоды в соседних городах и на ближайших метеорологических станциях:

Погода в Mahabaleshwar (Maharashtra, Индия) (62 км)
Погода в Bhira (Maharashtra, Индия) (77 км)
Погода в Alibag (Maharashtra, Индия) (93 км)
Погода в Ratnagiri (Maharashtra, Индия) (97 км)
Погода в Satara (Maharashtra, Индия) (106 км)
Погода в Pune (Maharashtra, Индия) (112 км)
Погода в Mumbai Colaba (Maharashtra, Индия) (124 км)
Погода в Mumbai (Maharashtra, Индия) (147 км)
Погода в Kolhapur (Maharashtra, Индия) (173 км)
Погода в Sangli (Maharashtra, Индия) (192 км)

Пояснения к столбцам:

Ветер - указаны скорость ветра в м/с - средняя за 10 мин, порывы в срок и между сроками (в фигурных скобках) и направление, откуда дует ветер: С - северный, СВ - северо-восточный, В - восточный, ЮВ - юго-восточный, Ю - южный, ЮЗ - юго-западный, З - западный, СЗ - северо-западный.
Видимость - горизонтальная дальность видимости в метрах или километрах. При видимости от 1 до 10 км при отсутствии осадков обычно наблюдается дымка, при ухудшении видимости до 1 км и менее - туман. В сухую погоду видимость может ухудшаться дымом, пылью или мглою.
Явления - указаны атмосферные явления, наблюдавшиеся в срок или в последний час перед сроком; фигурными скобками обозначены явления, наблюдавшиеся между сроками (за 1-3 часа до срока); квадратными скобками обозначены град или гололедные отложения с указанием их диаметра в мм.
Облачность - указаны через наклонную черту общая и нижняя облачность в баллах и высота нижней границы облаков в метрах; квадратными скобками обозначены формы облаков: Ci - перистые, Cs - перисто-слоистые, Cc - перисто-кучевые, Ac - высококучевые, As - высокослоистые, Sc - слоисто-кучевые, Ns - слоисто-дождевые, Cu - кучевые, Cb - кучево-дождевые. Подробнее классификацию облаков см. в Атласе облаков (PDF).
T - Температура воздуха - температура, измеренная на высоте 2 м над землей.
Td - Температура точки росы - температура, при понижении до которой содержащийся в воздухе водяной пар достигнет насыщения.
f - Относительная влажность воздуха - влажноcть воздуха, измеренная на высоте 2 м над землей.
Te - Эффективная температура - температура, которую ощущает одетый по сезону человек в тени. Характеристика душности погоды. При расчете учитывается влияние влажности воздуха и скорости ветра на теплоощущения человека.
Tes - Эффективная температура на солнце - температура, которую ощущает человек, с поправкой на солнечный нагрев. Характеристика знойности погоды. Зависит от высоты солнца над горизонтом, облачности и скорости ветра. Ночью, в пасмурную погоду, а также при ветре 12 м/с и более поправка равна нулю.
P - Атмосферное давление - приведенное к уровню моря атмосферное давление.
Po - Атмосферное давление - измеренное на уровне метеостанции атмосферное давление.
Tmin - Минимальная температура - минимум температуры воздуха на высоте 2 м над землей.
Tmax - Максимальная температура - максимум температуры воздуха на высоте 2 м над землей.
R - Количество осадков - Количество выпавших осадков за период времени, мм. При наведении курсора мыши на число - период времени, за который выпало указанное количество осадков.
R24 - Количество осадков - Количество выпавших осадков за 24 часа, мм.
S - Снежный покров - Высота снежного покрова, см. При наведении курсора мыши на число - состояние снежного покрова и степень покрытия местности в баллах.